[TLELIST] Archives

 

Current TLEs

January 2nd 2008 PDT

HST 1 20580U 90037B 07364.18525627 .00000278 00000-0 86937-5 0 378 2 20580 028.4695 351.9723 0003540 021.0813 338.9913 15.00320151769420 ISS (ZARYA) 1 25544U 98067A 07364.73670139 .00012334 00000-0 74251-4 0 6113 2 25544 051.6368 170.3413 0001671 018.3222 174.1994 15.78178742521781 CXO 1 25867U 99040B 08001.00000000 +.00000264 +00000-0 +10000-3 0 01515 2 25867 062.9258 084.7757 6537144 280.9807 000.8623 00.37804474002990 ____________________________________________________________________ These 2-Line ...Continue Reading

Current TLEs

January 1st 2008 PDT

HST 1 20580U 90037B 07363.38699539 +.00000314 +00000-0 +11481-4 0 00465 2 20580 028.4693 357.1772 0003591 013.2241 346.8443 15.00320161769308 ISS (ZARYA) 1 25544U 98067A 07363.72101852 .00011735 00000-0 70929-4 0 6046 2 25544 051.6368 175.5906 0001625 012.7664 165.3449 15.78150047521620 CXO 1 25867U 99040B 07363.29166667 +.00000274 +00000-0 +10000-3 0 01508 2 25867 062.9134 084.8307 6532656 281.0319 352.0915 00.37804979002983 ____________________________________________________________________ These 2-Line ...Continue Reading

Current TLEs

December 31st 2007 PDT

HST 1 20580U 90037B 07362.45568996 +.00000323 +00000-0 +12151-4 0 00368 2 20580 028.4694 003.2498 0003451 001.5089 358.5512 15.00319979769164 ISS (ZARYA) 1 25544U 98067A 07362.77247685 .00011027 00000-0 66962-4 0 5983 2 25544 051.6365 180.4913 0001603 013.7925 171.7208 15.78124795521475 CXO 1 25867U 99040B 07363.29166667 +.00000274 +00000-0 +10000-3 0 01508 2 25867 062.9134 084.8307 6532656 281.0319 352.0915 00.37804979002983 ____________________________________________________________________ These 2-Line ...Continue Reading

Current TLEs

December 30th 2007 PDT

HST 1 20580U 90037B 07361.45786299 +.00000349 +00000-0 +14227-4 0 00459 2 20580 028.4692 009.7574 0003401 349.2976 010.7542 15.00319820769019 ISS (ZARYA) 1 25544U 98067A 07360.53972256 .00012597 00000-0 76236-4 0 5803 2 25544 051.6376 192.0255 0001257 012.3107 079.9741 15.78033552521120 CXO 1 25867U 99040B 07360.66666667 +.00000252 +00000-0 +10000-3 0 01495 2 25867 062.9081 084.9116 6527127 281.0735 354.6873 00.37801467002971 ____________________________________________________________________ These 2-Line ...Continue Reading

Current TLEs

December 29th 2007 PDT

HST 1 20580U 90037B 07358.19829455 .00000401 00000-0 18245-4 0 338 2 20580 028.4685 031.0153 0003477 308.4536 051.5739 15.00318796768521 ISS (ZARYA) 1 25544U 98067A 07358.50968234 .00019813 00000-0 11778-3 0 5670 2 25544 051.6389 202.5114 0001208 011.3376 060.8870 15.78000751520809 CXO 1 25867U 99040B 07360.66666667 +.00000252 +00000-0 +10000-3 0 01495 2 25867 062.9081 084.9116 6527127 281.0735 354.6873 00.37801467002971 ____________________________________________________________________ These 2-Line ...Continue Reading

Current TLEs

December 28th 2007 PDT

HST 1 20580U 90037B 07359.46220918 +.00000385 +00000-0 +16984-4 0 00348 2 20580 028.4688 022.7729 0003387 324.7492 035.2874 15.00319263768712 ISS (ZARYA) 1 25544U 98067A 07357.89940972 .00020531 00000-0 12201-3 0 5659 2 25544 051.6388 205.6643 0001316 017.0677 186.0078 15.77978983520706 CXO 1 25867U 99040B 07360.66666667 +.00000252 +00000-0 +10000-3 0 01495 2 25867 062.9081 084.9116 6527127 281.0735 354.6873 00.37801467002971 ____________________________________________________________________ These 2-Line ...Continue Reading

Current TLEs

December 27th 2007 PDT

HST 1 20580U 90037B 07358.53090369 +.00000392 +00000-0 +17579-4 0 00473 2 20580 028.4687 028.8456 0003407 312.7241 047.3061 15.00318913768574 ISS (ZARYA) 1 25544U 98067A 07358.91359954 +.00018014 +00000-0 +10743-3 0 05705 2 25544 051.6383 200.4254 0000802 018.1332 190.1785 15.78006097520868 CXO 1 25867U 99040B 07358.00000000 +.00000251 +00000-0 +10000-3 0 01481 2 25867 062.9022 084.9700 6520237 281.1544 351.5882 00.37795531002968 ____________________________________________________________________ These 2-Line ...Continue Reading

Current TLEs

December 26th 2007 PDT

HST 1 20580U 90037B 07356.53524938 +.00000443 +00000-0 +21542-4 0 00321 2 20580 028.4684 041.8588 0003501 289.5697 070.4516 15.00318274768272 ISS (ZARYA) 1 25544U 98067A 07356.55077762 .00020500 00000-0 12214-3 0 5581 2 25544 051.6398 212.6299 0001097 007.1087 089.7100 15.77921517520495 CXO 1 25867U 99040B 07358.00000000 +.00000251 +00000-0 +10000-3 0 01481 2 25867 062.9022 084.9700 6520237 281.1544 351.5882 00.37795531002968 ____________________________________________________________________ These 2-Line ...Continue Reading

Current TLEs

December 25th 2007 PDT

HST 1 20580U 90037B 07356.53524938 +.00000443 +00000-0 +21542-4 0 00321 2 20580 028.4684 041.8588 0003501 289.5697 070.4516 15.00318274768272 ISS (ZARYA) 1 25544U 98067A 07355.73154609 .00011180 00000-0 68576-4 0 5527 2 25544 051.6395 216.8651 0001229 357.0277 123.0287 15.77877657520364 CXO 1 25867U 99040B 07358.00000000 +.00000251 +00000-0 +10000-3 0 01481 2 25867 062.9022 084.9700 6520237 281.1544 351.5882 00.37795531002968 ____________________________________________________________________ These 2-Line ...Continue Reading

Current TLEs

December 24th 2007 PDT

HST 1 20580U 90037B 07355.53742246 +.00000436 +00000-0 +20967-4 0 00326 2 20580 028.4683 048.3648 0003558 278.4669 081.5519 15.00317671768128 ISS (ZARYA) 1 25544U 98067A 07355.53401726 .00026271 00000-0 15550-3 0 5519 2 25544 051.6405 217.8801 0001088 003.6889 073.6141 15.77897480520332 CXO 1 25867U 99040B 07355.37500000 .00000353 00000-0 10000-3 0 1475 2 25867 062.8838 085.0435 6519152 281.2174 354.1653 00.37802539 2954 ____________________________________________________________________ These 2-Line ...Continue Reading
  • This mailing list is a public mailing list - anyone may join or leave, at any time.
  • This mailing list is announce-only.

International Space Station (ISS) / Hubble Space Telescope (HST) / Chandra X-Ray Observatory Orbital Data via EMAIL

Privacy Policy:

Private list